DW1830 Weather Reports


time (UTC)temp
F
wind
direction
speed
knots
gust
knots
rain 1hr
in
rain 24hr
in
rain mn
in
humidity
%
barometer
mb
20260503210211 90 291 0.9 5.2 0.00 0.00 0.00 21 1007.7
20260503200211 85 313 0.0 5.2 0.00 0.00 0.00 30 1008.5
20260503193211 84 273 5.2 5.2 0.00 0.00 0.00 31 1008.8
20260503190210 80 288 0.0 4.3 0.00 0.00 0.00 37 1009.1
20260503183211 78 338 1.7 4.3 0.00 0.00 0.00 43 1009.6
20260503180210 75 292 0.0 3.5 0.00 0.00 0.00 45 1009.8
20260503173210 72 326 0.0 4.3 0.00 0.00 0.00 54 1010.0
20260503170210 68 346 0.0 3.5 0.00 0.00 0.00 59 1010.3
20260503160210 61 149 0.0 1.7 0.00 0.00 0.00 78 1010.6
20260503150209 55 149 0.0 0.0 0.00 0.00 0.00 95 1010.7
20260503130208 50 148 0.0 0.0 0.00 0.00 0.00 90 1010.2
20260503120208 52 148 0.0 0.0 0.00 0.00 0.00 89 1010.3
20260503110207 53 148 0.0 0.0 0.00 0.00 0.00 87 1010.7
20260503100207 54 148 0.0 0.0 0.00 0.00 0.00 86 1010.7
20260503090208 56 148 0.0 0.0 0.00 0.01 0.00 83 1010.8
20260503080207 58 148 0.0 0.0 0.00 0.01 0.00 80 1010.8
20260503070206 60 148 0.0 0.0 0.00 0.01 0.00 76 1010.9
20260503060206 62 101 0.0 0.0 0.00 0.01 0.01 73 1010.4
20260503053206 62 101 0.0 0.0 0.00 0.01 0.01 72 1010.9
20260503050205 63 101 0.0 0.0 0.00 0.01 0.01 69 1011.2
20260503043206 64 101 0.0 0.0 0.00 0.01 0.01 67 1011.2
20260503040205 65 101 0.0 0.9 0.00 0.01 0.01 64 1011.2
20260503033206 66 101 0.0 6.1 0.00 0.01 0.01 62 1010.9
20260503030205 68 125 1.7 10.4 0.00 0.01 0.01 59 1010.7
20260503023205 72 153 3.5 7.0 0.00 0.01 0.01 51 1010.0
20260503020206 74 153 4.3 5.2 0.00 0.01 0.01 48 1009.6
20260503013205 76 319 0.0 0.9 0.00 0.01 0.01 45 1009.2
20260503010205 76 337 0.0 4.3 0.00 0.01 0.01 46 1009.2
20260503003205 76 265 0.0 5.2 0.00 0.01 0.01 45 1009.4
20260502233205 74 22 1.7 6.1 0.00 0.01 0.01 49 1009.7
20260502230205 73 19 0.0 4.3 0.00 0.01 0.01 48 1010.2
20260502223204 73 15 0.0 4.3 0.00 0.01 0.01 49 1010.7
20260502220204 71 312 0.0 4.3 0.00 0.01 0.01 50 1011.3
20260502213205 69 324 0.0 5.2 0.00 0.01 0.01 53 1011.6